www.pogodaiklimat.ru

Погода и климат >> Архив погоды >> Россия >> Приморский край >> Многоудобное


ПОГОДА в Многоудобном

  • Прогноз погоды в Многоудобном
  • Монитор погоды в Многоудобном

АРХИВ ПОГОДЫ в Многоудобном

Время (UTC), дата Ветер
(напр.,м/с)
 
Видим.   Явления Облачность Т
(С)
Тd
(С)
f
(%)
Тe
(С)
Тes
(С)
Комфортность P
(гПа)
Po
(гПа)
Тmin
(С)
Tmax
(С)
R
(мм)
R24
(мм)
S
(см)
12 13.05 Ю 1 н/о н/о +12.3 +6.9 70 +12 +12 1014.7 1009.1
18 13.05 штиль 0 н/о н/о +8.7 +7.6 93 +8 +8 1013.5 1007.8
21 13.05 СВ 1 н/о н/о +8.6 +7.8 95 +8 +8 1013.0 1007.3 +7.8 0.3
00 14.05 Ю 1 н/о н/о +12.7 +7.5 71 +13 +13 1013.9 1008.3
03 14.05 ЮЗ 3 н/о н/о +19.7 +2.3 31 +20 +20 1012.4 1006.9
06 14.05 ЮЗ 4 н/о н/о +20.8 +2.9 31 +21 +21 комфорт 1010.7 1005.3
09 14.05 ЮЗ 3 н/о н/о +13.0 +8.4 74 +12 +12 1011.3 1005.7 +21.9 0.3
12 14.05 штиль 0 н/о н/о +8.3 +6.5 88 +7 +7 1013.3 1007.7
15 14.05 Ю 1 н/о н/о +7.4 +6.6 95 +6 +6 1014.1 1008.4
18 14.05 ЮЗ 1 н/о н/о +8.7 +7.7 93 +8 +8 1014.1 1008.4
21 14.05 ЮЗ 1 н/о н/о +10.0 +8.4 90 +9 +9 1014.5 1008.9 +6.3
00 15.05 ЮЗ 2 н/о н/о +13.6 +8.7 72 +13 +13 1015.0 1009.4
03 15.05 ЮЗ 3 н/о н/о +16.6 +9.5 63 +16 +16 1013.6 1008.1
06 15.05 ЮЗ 4 н/о н/о +16.5 +9.7 64 +16 +16 1012.1 1006.6
09 15.05 ЮЗ 3 н/о н/о +14.3 +9.4 72 +13 +13 1011.1 1005.5 +17.8
12 15.05 Ю 1 н/о н/о +9.8 +8.8 93 +9 +9 1012.6 1007.0
15 15.05 ЮЗ 2 н/о н/о +9.6 +8.6 93 +8 +8 1011.8 1006.2
18 15.05 Ю 1 н/о н/о +11.1 +8.8 86 +11 +11 1011.2 1005.6
21 15.05 ЮЗ 2 н/о н/о +9.2 +7.9 92 +7 +7 1012.2 1006.5 +8.3
00 16.05 ЮЗ 2 н/о н/о +14.2 +10.4 78 +14 +14 1011.8 1006.2
03 16.05 ЮЗ 4
{10}
н/о н/о +15.8 +11.1 74 +15 +15 1011.6 1006.1
06 16.05 ЮЗ 3 н/о н/о +16.2 +11.6 74 +16 +16 1009.7 1004.2
09 16.05 ЮЗ 3 н/о н/о +13.7 +11.0 84 +13 +13 1010.2 1004.6 +17.9
12 16.05 Ю 1 н/о н/о +11.6 +10.6 94 +11 +11 1012.3 1006.7
15 16.05 Ю 1 н/о н/о +10.8 +10.0 95 +10 +10 1011.6 1006.0
18 16.05 Ю 1 н/о н/о +11.2 +10.2 94 +11 +11 1011.7 1006.0
21 16.05 штиль 0 н/о н/о +10.5 +9.8 95 +10 +10 1012.3 1006.7 +8.9
00 17.05 ЮЗ 2 н/о н/о +17.4 +12.9 75 +18 +18 1012.1 1006.7
03 17.05 З 3 н/о н/о +22.1 +13.0 56 +25 +25 комфорт 1011.5 1006.1
06 17.05 ЮЗ 4 н/о н/о +22.3 +12.8 55 +25 +25 комфорт 1009.9 1004.5
09 17.05 ЮЗ 4
{10}
н/о н/о +18.6 +12.7 69 +19 +19 1011.1 1005.6 +23.4
12 17.05 Ю 1 н/о н/о +13.6 +12.0 90 +14 +14 1011.8 1006.3
15 17.05 Ю 2 н/о н/о +12.8 +11.4 91 +12 +12 1013.3 1007.7
18 17.05 ЮЗ 1 н/о н/о +10.9 +10.2 95 +10 +10 1013.2 1007.6
21 17.05 Ю 1 н/о н/о +11.1 +10.5 96 +11 +11 1014.7 1009.1 +8.7
00 18.05 Ю 2 н/о н/о +15.9 +12.7 81 +16 +16 1014.4 1008.9
03 18.05 ЮЗ 4 н/о н/о +21.2 +13.8 63 +24 +24 комфорт 1014.9 1009.5
06 18.05 ЮЗ 4 н/о н/о +24.7 +12.0 45 +26 +26 жарко 1012.3 1006.9
09 18.05 ЮЗ 3
{11}
н/о н/о +19.0 +11.8 63 +20 +20 1012.4 1007.0 +25.0
12 18.05 Ю 1 н/о н/о +14.7 +12.6 87 +15 +15 1014.1 1008.5
15 18.05 Ю 2 н/о н/о +13.6 +12.2 91 +13 +13 1015.1 1009.5
18 18.05 Ю 1 н/о н/о +13.3 +12.2 93 +13 +13 1014.5 1008.9
21 18.05 ЮВ 1 н/о н/о +12.5 +11.8 95 +12 +12 1014.1 1008.5 +9.4
00 19.05 ЮЗ 2 н/о н/о +18.4 +12.8 70 +19 +19 1013.4 1008.0
03 19.05 ЮЗ 3
{10}
н/о н/о +20.3 +12.4 60 +23 +23 комфорт 1012.9 1007.5
06 19.05 ЮЗ 3 н/о н/о +19.6 +12.7 64 +21 +21 комфорт 1010.3 1004.9
09 19.05 Ю 2 н/о н/о +20.7 +12.0 57 +23 +23 комфорт 1008.1 1002.7 +23.0

 

Местоположение метеостанции Многоудобное (Приморский край, Россия): широта 43.47 долгота 132.47 высота над уровнем моря 81 м.

В архиве по умолчанию представлена погода в Многоудобном за последнюю неделю. Архивные данные за месяц целиком и за предыдущие месяцы, начиная с января 2011 года, Вы можете получить, выбрав интересующий диапазон дат из раскрывающегося списка и нажав кнопку "Ввод!".


*Определитесь, кто Вы:
робот инопланетянин человек

Внимание! Время в таблицах - всемирное. Для получения местного времени необходимо прибавить поправку, которая равна 10 ч.

Смотрите также архив погоды в соседних городах и на ближайших метеорологических станциях:

Погода в Партизанске (Приморский край, Россия) (56 км)
Погода в Владивостоке (Приморский край, Россия) (60 км)
Погода в Тимирязевском (Приморский край, Россия) (65 км)
Погода на Мысе Назимова (Приморский край, Россия) (66 км)
Погода в Анучино (Приморский край, Россия) (70 км)
Погода в Находке (Приморский край, Россия) (79 км)
Погода в Барабаше (Приморский край, Россия) (92 км)
Погода в Лазо (Приморский край, Россия) (108 км)
Погода в Полтавке (Приморский край, Россия) (113 км)
Погода в Хороле (Приморский край, Россия) (113 км)

Пояснения к столбцам:

Ветер - указаны скорость ветра в м/с - средняя за 10 мин, порывы в срок и между сроками (в фигурных скобках) и направление, откуда дует ветер: С - северный, СВ - северо-восточный, В - восточный, ЮВ - юго-восточный, Ю - южный, ЮЗ - юго-западный, З - западный, СЗ - северо-западный.
Видимость - горизонтальная дальность видимости в метрах или километрах. При видимости от 1 до 10 км при отсутствии осадков обычно наблюдается дымка, при ухудшении видимости до 1 км и менее - туман. В сухую погоду видимость может ухудшаться дымом, пылью или мглою.
Явления - указаны атмосферные явления, наблюдавшиеся в срок или в последний час перед сроком; фигурными скобками обозначены явления, наблюдавшиеся между сроками (за 1-3 часа до срока); квадратными скобками обозначены град или гололедные отложения с указанием их диаметра в мм.
Облачность - указаны через наклонную черту общая и нижняя облачность в баллах и высота нижней границы облаков в метрах; квадратными скобками обозначены формы облаков: Ci - перистые, Cs - перисто-слоистые, Cc - перисто-кучевые, Ac - высококучевые, As - высокослоистые, Sc - слоисто-кучевые, Ns - слоисто-дождевые, Cu - кучевые, Cb - кучево-дождевые. Подробнее классификацию облаков см. в Атласе облаков (PDF).
T - Температура воздуха - температура, измеренная на высоте 2 м над землей.
Td - Температура точки росы - температура, при понижении до которой содержащийся в воздухе водяной пар достигнет насыщения.
f - Относительная влажность воздуха - влажноcть воздуха, измеренная на высоте 2 м над землей.
Te - Эффективная температура - температура, которую ощущает одетый по сезону человек в тени. Характеристика душности погоды. При расчете учитывается влияние влажности воздуха и скорости ветра на теплоощущения человека.
Tes - Эффективная температура на солнце - температура, которую ощущает человек, с поправкой на солнечный нагрев. Характеристика знойности погоды. Зависит от высоты солнца над горизонтом, облачности и скорости ветра. Ночью, в пасмурную погоду, а также при ветре 12 м/с и более поправка равна нулю.
P - Атмосферное давление - приведенное к уровню моря атмосферное давление.
Po - Атмосферное давление - измеренное на уровне метеостанции атмосферное давление.
Tmin - Минимальная температура - минимум температуры воздуха на высоте 2 м над землей.
Tmax - Максимальная температура - максимум температуры воздуха на высоте 2 м над землей.
R - Количество осадков - Количество выпавших осадков за период времени, мм. При наведении курсора мыши на число - период времени, за который выпало указанное количество осадков.
R24 - Количество осадков - Количество выпавших осадков за 24 часа, мм.
S - Снежный покров - Высота снежного покрова, см. При наведении курсора мыши на число - состояние снежного покрова и степень покрытия местности в баллах.